Flag for Germany Weather past 2 weeks in Darmstadt, Hesse, Germany

Now
57 °F

Sunny.


Feels Like: 57 °F
Forecast: 46 / 69 °F
Wind: 2 mph from North

Location: Frankfurt-M-Flughafen Airport

Current Time: May 27, 2015 at 8:55:20 PM

Latest Report: May 27, 2015 at 8:20 PM


Visibility: 10 mi

Pressure: 30.18 "Hg

Humidity: 44%

Dew point: 36 °F

Location of DarmstadtLocation

Historic Weather in Darmstadt — Graph

°F

Darmstadt temperature yesterday

Maximum temperature yesterday: 61 °F (at 4:50 PM)
Minimum temperature yesterday: 46 °F (at 3:50 AM)
Average temperature yesterday: 54 °F

Past Weeks' High & Low Weather Summary

 TemperatureHumidityPressure
High73 °F (May 18, 3:20 PM)94% (May 13, 8:50 PM)30.33 "Hg (May 13, 8:50 PM)
Low39 °F (May 22, 4:50 AM)23% (May 18, 3:20 PM)29.68 "Hg (May 18, 7:20 PM)
Average58 °F58%30.05 "Hg
* Reported May 12 7:20 PM — May 27 7:20 PM, Darmstadt, Weather by CustomWeather, © 2015

Note: Actual official high and low records may vary slightly from our data, if they occured in-between our weather recording intervals... More about our weather records

Advertising

Darmstadt weather history for previous 24 hours

 ConditionsComfort  
Time TempWeatherWind HumidityBarometerVisibility
7:20 PM
Wed, May 27
59 °FPassing clouds.6 mph39%30.18 "HgN/A
6:50 PM59 °FPartly sunny.3 mph42%30.21 "HgN/A
6:20 PM59 °FPartly sunny.5 mph39%30.21 "HgN/A
5:50 PM59 °FPartly sunny.5 mph39%30.21 "HgN/A
5:20 PM59 °FPartly sunny.7 mph42%30.21 "HgN/A
4:50 PM59 °FPartly sunny.2 mph39%30.21 "HgN/A
4:20 PM59 °FPartly sunny.3 mph42%30.21 "HgN/A
3:50 PM59 °FPartly sunny.6 mph42%30.21 "HgN/A
3:20 PM59 °FPartly sunny.3 mph45%30.24 "HgN/A
2:50 PM57 °FPartly sunny.5 mph44%30.24 "HgN/A
2:20 PM57 °FPartly sunny.6 mph48%30.24 "HgN/A
1:50 PM57 °FPartly sunny.5 mph48%30.24 "HgN/A
1:20 PM55 °FPartly sunny.5 mph51%30.24 "HgN/A
12:50 PM55 °FPartly sunny.6 mph55%30.24 "HgN/A
12:20 PM55 °FPartly sunny.3 mph51%30.24 "HgN/A
11:50 AM54 °FBroken clouds.3 mph54%30.27 "HgN/A
11:20 AM54 °FBroken clouds.5 mph58%30.27 "HgN/A
10:50 AM52 °FBroken clouds.3 mph62%30.27 "HgN/A
10:20 AM54 °FBroken clouds.6 mph63%30.27 "HgN/A
9:50 AM52 °FBroken clouds.3 mph67%30.27 "HgN/A
9:20 AM52 °FPartly sunny.3 mph72%30.27 "HgN/A
8:50 AM50 °FPartly sunny.3 mph76%30.27 "HgN/A
8:20 AM48 °FPartly sunny.1 mph76%30.24 "HgN/A
7:50 AM46 °FPartly sunny.3 mph87%30.24 "HgN/A
7:20 AM46 °FPartly sunny.2 mph82%30.24 "HgN/A
6:50 AM45 °FPartly sunny.1 mph87%30.24 "HgN/A
6:20 AM43 °FPassing clouds.2 mph87%30.24 "HgN/A
5:20 AM43 °FPassing clouds.3 mph87%30.21 "HgN/A
4:50 AM45 °FPassing clouds.5 mph87%30.21 "HgN/A
4:20 AM39 °FPassing clouds.3 mph93%30.21 "HgN/A
3:50 AM39 °FFog.1 mph93%30.21 "HgN/A
3:20 AM41 °FFog.3 mph87%30.21 "HgN/A
2:50 AM41 °FClear.3 mph93%30.21 "Hg10 mi
2:20 AM41 °FClear.3 mph93%30.21 "Hg10 mi
1:50 AM43 °FClear.2 mph87%30.21 "Hg10 mi
1:20 AM43 °FClear.3 mph87%30.21 "Hg10 mi
12:50 AM45 °FClear.5 mph81%30.21 "Hg10 mi
12:20 AM45 °FPassing clouds.6 mph81%30.18 "HgN/A
11:20 PM
Tue, May 26
50 °FClear.3 mph67%30.18 "Hg10 mi
10:50 PM54 °FClear.7 mph58%30.18 "Hg10 mi
10:20 PM54 °FPassing clouds.8 mph58%30.18 "HgN/A
9:50 PM55 °FPassing clouds.6 mph55%30.18 "HgN/A
9:20 PM55 °FSunny.5 mph55%30.18 "Hg10 mi
8:50 PM55 °FPassing clouds.6 mph55%30.18 "HgN/A
8:20 PM55 °FPassing clouds.3 mph51%30.15 "HgN/A
Weather by CustomWeather, © 2015

See weather overviewHow to use our weather pages